QPF
0.00 0.00 0.00 0.00 0.00 0.00 0.00 0.00 0.00 0.00 0.00 0.00 0.00 0.00 0.00 0.00 0.00 0.00 0.00 0.00 0.00 0.00 0.01 0.02 0.03 0.03 0.01 0.00 0.00 0.00 0.00 0.00 0.01 0.02 0.02 0.02 0.02 0.03 0.03 0.03 0.05 0.05 0.04 0.03
0.00 0.00 0.00 0.00 0.00 0.00 0.00 0.00 0.00 0.00 0.00 0.00 0.00 0.00 0.00 0.00 0.00 0.00 0.00 0.00 0.00 0.00 0.01 0.01 0.03 0.04 0.02 0.01 0.01 0.01 0.00 0.00 0.00 0.01 0.01 0.01 0.01 0.01 0.02 0.02 0.03 0.03 0.03 0.03
0.00 0.00 0.00 0.00 0.00 0.00 0.00 0.00 0.00 0.00 0.00 0.00 0.00 0.00 0.00 0.00 0.00 0.00 0.00 0.00 0.00 0.00 0.01 0.02 0.04 0.05 0.05 0.03 0.02 0.02 0.01 0.01 0.00 0.00 0.01 0.01 0.01 0.01 0.02 0.02 0.02 0.02 0.02 0.02
0.00 0.00 0.00 0.00 0.00 0.00 0.00 0.00 0.00 0.00 0.00 0.00 0.00 0.00 0.00 0.00 0.00 0.00 0.00 0.00 0.00 0.01 0.02 0.03 0.04 0.04 0.05 0.06 0.05 0.04 0.02 0.01 0.01 0.01 0.01 0.01 0.01 0.01 0.01 0.01 0.02 0.02 0.02 0.03
0.00 0.00 0.00 0.00 0.00 0.00 0.00 0.01 0.00 0.00 0.00 0.00 0.00 0.00 0.00 0.00 0.00 0.00 0.00 0.00 0.01 0.01 0.01 0.03 0.03 0.01 0.01 0.01 0.02 0.04 0.03 0.01 0.01 0.01 0.01 0.01 0.01 0.01 0.01 0.02 0.04 0.06 0.06 0.05
0.00 0.00 0.00 0.01 0.01 0.00 0.01 0.01 0.01 0.00 0.00 0.00 0.00 0.00 0.00 0.00 0.00 0.00 0.00 0.01 0.01 0.01 0.01 0.02 0.02 0.02 0.01 0.01 0.01 0.01 0.02 0.02 0.01 0.01 0.01 0.01 0.01 0.01 0.01 0.01 0.02 0.03 0.05 0.05
0.00 0.00 0.00 0.01 0.01 0.01 0.01 0.01 0.01 0.00 0.00 0.00 0.00 0.01 0.00 0.00 0.01 0.01 0.01 0.01 0.01 0.01 0.01 0.01 0.01 0.01 0.01 0.02 0.02 0.01 0.01 0.01 0.01 0.01 0.02 0.02 0.01 0.01 0.01 0.01 0.01 0.01 0.02 0.02
0.00 0.00 0.00 0.01 0.02 0.02 0.02 0.02 0.01 0.01 0.00 0.01 0.01 0.01 0.01 0.01 0.01 0.01 0.01 0.02 0.02 0.02 0.01 0.01 0.01 0.01 0.02 0.03 0.03 0.02 0.02 0.02 0.01 0.01 0.01 0.02 0.02 0.02 0.01 0.01 0.01 0.02 0.02 0.03
0.00 0.00 0.00 0.01 0.02 0.02 0.02 0.02 0.02 0.01 0.01 0.01 0.01 0.00 0.01 0.01 0.01 0.01 0.01 0.02 0.02 0.02 0.02 0.02 0.02 0.02 0.03 0.04 0.04 0.03 0.02 0.02 0.01 0.01 0.01 0.01 0.02 0.02 0.02 0.02 0.03 0.03 0.03 0.05
0.00 0.00 0.00 0.00 0.01 0.01 0.01 0.01 0.01 0.01 0.01 0.01 0.01 0.01 0.01 0.01 0.02 0.02 0.02 0.02 0.03 0.02 0.02 0.02 0.01 0.02 0.03 0.04 0.04 0.05 0.04 0.02 0.01 0.01 0.01 0.02 0.02 0.02 0.02 0.03 0.04 0.05 0.06 0.06
0.00 0.00 0.00 0.00 0.01 0.01 0.01 0.01 0.01 0.01 0.01 0.01 0.01 0.01 0.01 0.02 0.03 0.03 0.02 0.02 0.02 0.02 0.02 0.02 0.02 0.02 0.02 0.03 0.04 0.05 0.05 0.04 0.03 0.03 0.03 0.04 0.03 0.03 0.03 0.04 0.05 0.05 0.05 0.04
0.01 0.00 0.01 0.01 0.01 0.01 0.02 0.01 0.01 0.01 0.01 0.01 0.01 0.01 0.01 0.01 0.02 0.02 0.02 0.02 0.02 0.03 0.03 0.03 0.02 0.02 0.02 0.01 0.01 0.01 0.02 0.02 0.02 0.03 0.03 0.03 0.04 0.04 0.05 0.05 0.05 0.06 0.06 0.05
0.01 0.00 0.01 0.01 0.01 0.01 0.01 0.02 0.02 0.02 0.02 0.02 0.02 0.01 0.01 0.01 0.01 0.02 0.03 0.02 0.02 0.03 0.04 0.03 0.02 0.02 0.01 0.01 0.01 0.01 0.02 0.02 0.02 0.02 0.02 0.03 0.04 0.04 0.05 0.05 0.05 0.05 0.05 0.04
0.01 0.01 0.01 0.01 0.02 0.02 0.02 0.02 0.02 0.02 0.03 0.03 0.04 0.03 0.02 0.02 0.02 0.02 0.02 0.02 0.02 0.02 0.02 0.02 0.01 0.01 0.01 0.01 0.01 0.02 0.02 0.02 0.03 0.03 0.02 0.03 0.03 0.04 0.04 0.05 0.05 0.04 0.04 0.04
0.02 0.02 0.02 0.02 0.02 0.02 0.02 0.02 0.02 0.02 0.03 0.02 0.02 0.02 0.02 0.02 0.03 0.02 0.02 0.03 0.02 0.02 0.02 0.01 0.01 0.01 0.01 0.01 0.02 0.02 0.02 0.02 0.02 0.03 0.04 0.03 0.03 0.03 0.04 0.04 0.04 0.04 0.05 0.06
0.03 0.02 0.01 0.02 0.01 0.01 0.01 0.01 0.02 0.02 0.01 0.01 0.02 0.02 0.02 0.02 0.02 0.01 0.02 0.02 0.01 0.02 0.02 0.02 0.01 0.01 0.01 0.01 0.01 0.02 0.02 0.02 0.02 0.02 0.03 0.03 0.03 0.03 0.03 0.02 0.02 0.03 0.03 0.04
0.02 0.02 0.02 0.02 0.01 0.01 0.01 0.01 0.01 0.01 0.01 0.01 0.01 0.01 0.01 0.01 0.01 0.01 0.01 0.01 0.01 0.01 0.01 0.01 0.01 0.01 0.01 0.01 0.02 0.02 0.02 0.02 0.02 0.02 0.03 0.03 0.04 0.04 0.03 0.03 0.03 0.03 0.03 0.03
0.03 0.03 0.04 0.03 0.02 0.02 0.02 0.02 0.01 0.01 0.01 0.01 0.02 0.01 0.01 0.01 0.01 0.01 0.01 0.02 0.02 0.01 0.02 0.02 0.02 0.02 0.01 0.01 0.02 0.02 0.01 0.01 0.02 0.02 0.03 0.03 0.03 0.03 0.03 0.03 0.03 0.03 0.04 0.04
0.03 0.04 0.03 0.03 0.03 0.03 0.04 0.03 0.02 0.02 0.02 0.01 0.01 0.01 0.01 0.01 0.01 0.01 0.01 0.01 0.01 0.02 0.02 0.03 0.03 0.03 0.02 0.02 0.02 0.02 0.02 0.02 0.01 0.02 0.02 0.03 0.04 0.03 0.02 0.02 0.03 0.03 0.03 0.04
0.03 0.04 0.04 0.04 0.03 0.03 0.03 0.02 0.02 0.02 0.02 0.02 0.02 0.02 0.02 0.02 0.02 0.01 0.01 0.01 0.02 0.03 0.03 0.03 0.03 0.04 0.04 0.04 0.05 0.04 0.04 0.03 0.02 0.03 0.02 0.02 0.03 0.03 0.02 0.02 0.02 0.03 0.03 0.03
0.02 0.02 0.02 0.02 0.01 0.01 0.01 0.01 0.01 0.02 0.02 0.02 0.02 0.03 0.03 0.03 0.02 0.02 0.02 0.02 0.02 0.02 0.02 0.02 0.02 0.03 0.03 0.03 0.04 0.05 0.05 0.05 0.04 0.04 0.03 0.03 0.03 0.03 0.03 0.03 0.03 0.03 0.04 0.04
0.01 0.01 0.02 0.02 0.02 0.02 0.01 0.01 0.01 0.01 0.01 0.02 0.02 0.03 0.03 0.03 0.03 0.03 0.03 0.03 0.02 0.02 0.02 0.02 0.02 0.02 0.02 0.02 0.03 0.03 0.03 0.04 0.04 0.04 0.04 0.04 0.04 0.04 0.04 0.04 0.04 0.04 0.04 0.04
0.01 0.01 0.02 0.02 0.02 0.02 0.01 0.01 0.01 0.01 0.01 0.01 0.02 0.02 0.02 0.03 0.03 0.03 0.03 0.03 0.02 0.02 0.01 0.01 0.01 0.02 0.02 0.02 0.03 0.03 0.03 0.03 0.03 0.03 0.03 0.03 0.03 0.04 0.05 0.05 0.05 0.05 0.05 0.04
0.01 0.01 0.01 0.01 0.01 0.02 0.02 0.02 0.02 0.02 0.02 0.02 0.02 0.02 0.02 0.02 0.02 0.02 0.01 0.01 0.01 0.01 0.00 0.01 0.01 0.01 0.02 0.02 0.03 0.03 0.03 0.03 0.03 0.02 0.02 0.02 0.02 0.03 0.03 0.04 0.04 0.04 0.03 0.03
0.02 0.01 0.01 0.01 0.02 0.02 0.02 0.02 0.02 0.02 0.02 0.02 0.02 0.01 0.01 0.01 0.01 0.01 0.02 0.02 0.02 0.02 0.02 0.02 0.02 0.02 0.02 0.03 0.03 0.02 0.02 0.02 0.02 0.02 0.02 0.02 0.02 0.03 0.03 0.03 0.03 0.02 0.01 0.01
0.01 0.01 0.02 0.02 0.02 0.02 0.02 0.02 0.02 0.03 0.03 0.03 0.03 0.02 0.02 0.02 0.02 0.02 0.03 0.03 0.03 0.03 0.03 0.03 0.03 0.03 0.03 0.03 0.03 0.03 0.03 0.03 0.03 0.03 0.02 0.02 0.02 0.02 0.01 0.02 0.01 0.01 0.01 0.01
0.01 0.01 0.02 0.02 0.02 0.02 0.02 0.03 0.03 0.03 0.03 0.04 0.04 0.03 0.03 0.03 0.03 0.03 0.03 0.03 0.03 0.04 0.03 0.03 0.02 0.02 0.02 0.02 0.02 0.03 0.03 0.03 0.02 0.02 0.02 0.02 0.02 0.02 0.02 0.02 0.02 0.02 0.02 0.02
MSLP
1007.03 1007.29 1007.55 1007.81 1008.05 1008.24 1008.36 1008.37 1008.26 1008.05 1007.75 1007.40 1007.05 1006.77 1006.60 1006.58 1006.71 1006.99 1007.39 1007.87 1008.38 1008.89 1009.36 1009.79 1010.20 1010.58 1010.98 1011.41 1011.88 1012.41 1012.97 1013.55 1014.12 1014.64 1015.09 1015.46 1015.74 1015.94 1016.07 1016.15 1016.20 1016.23 1016.24 1016.23
1007.10 1007.34 1007.54 1007.70 1007.82 1007.89 1007.88 1007.81 1007.65 1007.42 1007.14 1006.83 1006.55 1006.33 1006.21 1006.21 1006.34 1006.60 1006.96 1007.39 1007.87 1008.37 1008.86 1009.34 1009.81 1010.28 1010.77 1011.28 1011.83 1012.40 1012.99 1013.57 1014.12 1014.62 1015.05 1015.40 1015.67 1015.87 1016.01 1016.10 1016.17 1016.22 1016.24 1016.25
1007.26 1007.48 1007.63 1007.71 1007.73 1007.69 1007.59 1007.42 1007.20 1006.94 1006.65 1006.36 1006.10 1005.91 1005.80 1005.79 1005.89 1006.10 1006.41 1006.80 1007.25 1007.74 1008.25 1008.78 1009.33 1009.89 1010.47 1011.08 1011.70 1012.32 1012.94 1013.52 1014.06 1014.53 1014.93 1015.26 1015.51 1015.69 1015.83 1015.93 1016.00 1016.05 1016.09 1016.10
1007.45 1007.65 1007.77 1007.79 1007.74 1007.61 1007.42 1007.17 1006.89 1006.59 1006.28 1005.99 1005.73 1005.54 1005.42 1005.39 1005.45 1005.62 1005.87 1006.21 1006.63 1007.10 1007.63 1008.20 1008.81 1009.45 1010.11 1010.80 1011.48 1012.15 1012.78 1013.37 1013.89 1014.34 1014.71 1015.01 1015.24 1015.41 1015.53 1015.63 1015.70 1015.74 1015.78 1015.79
1007.62 1007.80 1007.88 1007.86 1007.75 1007.55 1007.29 1006.98 1006.65 1006.32 1005.99 1005.69 1005.44 1005.24 1005.12 1005.07 1005.11 1005.23 1005.44 1005.74 1006.12 1006.57 1007.10 1007.69 1008.34 1009.02 1009.74 1010.47 1011.19 1011.89 1012.53 1013.11 1013.62 1014.04 1014.39 1014.66 1014.86 1015.01 1015.13 1015.21 1015.27 1015.31 1015.34 1015.34
1007.72 1007.88 1007.93 1007.87 1007.70 1007.45 1007.14 1006.79 1006.43 1006.07 1005.74 1005.45 1005.21 1005.03 1004.92 1004.87 1004.90 1005.00 1005.19 1005.45 1005.80 1006.23 1006.74 1007.33 1007.97 1008.67 1009.40 1010.14 1010.87 1011.56 1012.19 1012.76 1013.24 1013.64 1013.96 1014.21 1014.40 1014.54 1014.65 1014.73 1014.78 1014.81 1014.82 1014.82
1007.76 1007.88 1007.89 1007.78 1007.57 1007.27 1006.92 1006.55 1006.17 1005.81 1005.49 1005.23 1005.02 1004.88 1004.80 1004.78 1004.82 1004.93 1005.11 1005.35 1005.67 1006.08 1006.56 1007.11 1007.73 1008.41 1009.11 1009.82 1010.52 1011.18 1011.78 1012.32 1012.77 1013.15 1013.45 1013.69 1013.88 1014.02 1014.13 1014.21 1014.27 1014.30 1014.31 1014.29
1007.74 1007.81 1007.76 1007.61 1007.35 1007.02 1006.64 1006.25 1005.87 1005.52 1005.23 1005.00 1004.85 1004.76 1004.73 1004.76 1004.84 1004.97 1005.15 1005.39 1005.69 1006.06 1006.50 1007.01 1007.58 1008.19 1008.84 1009.50 1010.15 1010.75 1011.31 1011.81 1012.23 1012.59 1012.89 1013.12 1013.32 1013.48 1013.61 1013.70 1013.78 1013.82 1013.84 1013.83
1007.71 1007.72 1007.61 1007.40 1007.10 1006.73 1006.32 1005.92 1005.54 1005.21 1004.95 1004.77 1004.67 1004.64 1004.67 1004.76 1004.88 1005.05 1005.25 1005.49 1005.77 1006.11 1006.50 1006.95 1007.45 1007.99 1008.57 1009.15 1009.73 1010.28 1010.78 1011.24 1011.64 1011.98 1012.28 1012.53 1012.74 1012.93 1013.09 1013.22 1013.33 1013.40 1013.45 1013.46
1007.70 1007.64 1007.47 1007.20 1006.85 1006.45 1006.02 1005.60 1005.23 1004.92 1004.69 1004.55 1004.50 1004.52 1004.61 1004.74 1004.91 1005.10 1005.31 1005.55 1005.82 1006.12 1006.46 1006.84 1007.27 1007.74 1008.24 1008.74 1009.25 1009.74 1010.19 1010.61 1010.99 1011.33 1011.63 1011.91 1012.15 1012.38 1012.58 1012.76 1012.92 1013.04 1013.12 1013.17
1007.75 1007.62 1007.39 1007.07 1006.68 1006.24 1005.79 1005.37 1004.99 1004.70 1004.49 1004.37 1004.36 1004.41 1004.53 1004.69 1004.88 1005.09 1005.31 1005.53 1005.77 1006.03 1006.32 1006.65 1007.01 1007.40 1007.82 1008.26 1008.70 1009.14 1009.55 1009.94 1010.31 1010.64 1010.96 1011.26 1011.54 1011.81 1012.06 1012.30 1012.51 1012.69 1012.83 1012.93
1007.85 1007.66 1007.39 1007.03 1006.60 1006.15 1005.69 1005.26 1004.89 1004.59 1004.40 1004.29 1004.28 1004.35 1004.47 1004.64 1004.82 1005.01 1005.21 1005.41 1005.61 1005.83 1006.07 1006.34 1006.63 1006.96 1007.32 1007.70 1008.09 1008.48 1008.86 1009.23 1009.59 1009.93 1010.25 1010.57 1010.89 1011.20 1011.50 1011.79 1012.05 1012.29 1012.49 1012.65
1007.99 1007.77 1007.46 1007.08 1006.65 1006.19 1005.73 1005.30 1004.93 1004.64 1004.44 1004.33 1004.31 1004.36 1004.46 1004.60 1004.75 1004.90 1005.06 1005.21 1005.37 1005.53 1005.72 1005.93 1006.17 1006.45 1006.76 1007.09 1007.44 1007.80 1008.16 1008.51 1008.85 1009.19 1009.52 1009.86 1010.19 1010.53 1010.86 1011.19 1011.50 1011.79 1012.05 1012.26
1008.15 1007.92 1007.60 1007.22 1006.79 1006.34 1005.89 1005.48 1005.12 1004.84 1004.63 1004.51 1004.46 1004.47 1004.53 1004.61 1004.71 1004.80 1004.89 1004.98 1005.08 1005.18 1005.31 1005.47 1005.67 1005.90 1006.17 1006.46 1006.78 1007.11 1007.45 1007.79 1008.12 1008.45 1008.78 1009.11 1009.45 1009.79 1010.14 1010.49 1010.83 1011.15 1011.44 1011.69
1008.31 1008.08 1007.78 1007.41 1007.00 1006.57 1006.16 1005.76 1005.42 1005.15 1004.93 1004.79 1004.71 1004.68 1004.67 1004.69 1004.71 1004.73 1004.74 1004.76 1004.78 1004.83 1004.90 1005.01 1005.16 1005.35 1005.58 1005.86 1006.15 1006.46 1006.78 1007.10 1007.41 1007.73 1008.04 1008.36 1008.68 1009.01 1009.35 1009.69 1010.03 1010.35 1010.66 1010.93
1008.46 1008.24 1007.95 1007.61 1007.24 1006.84 1006.46 1006.10 1005.78 1005.51 1005.30 1005.14 1005.02 1004.93 1004.87 1004.81 1004.75 1004.69 1004.63 1004.57 1004.52 1004.50 1004.51 1004.57 1004.68 1004.84 1005.05 1005.30 1005.57 1005.86 1006.16 1006.46 1006.76 1007.05 1007.34 1007.63 1007.92 1008.22 1008.52 1008.83 1009.15 1009.45 1009.75 1010.02
1008.59 1008.39 1008.12 1007.81 1007.46 1007.10 1006.75 1006.42 1006.12 1005.87 1005.65 1005.47 1005.33 1005.19 1005.07 1004.95 1004.82 1004.68 1004.54 1004.41 1004.30 1004.22 1004.18 1004.20 1004.27 1004.41 1004.59 1004.82 1005.07 1005.35 1005.63 1005.92 1006.19 1006.46 1006.72 1006.97 1007.22 1007.47 1007.73 1007.99 1008.26 1008.53 1008.78 1009.03
1008.72 1008.52 1008.26 1007.97 1007.64 1007.31 1006.98 1006.68 1006.40 1006.15 1005.93 1005.74 1005.57 1005.40 1005.23 1005.06 1004.87 1004.67 1004.47 1004.28 1004.12 1003.99 1003.92 1003.90 1003.95 1004.06 1004.23 1004.44 1004.69 1004.95 1005.22 1005.49 1005.75 1005.99 1006.22 1006.43 1006.64 1006.84 1007.05 1007.26 1007.47 1007.68 1007.89 1008.10
1008.82 1008.62 1008.36 1008.07 1007.76 1007.43 1007.12 1006.83 1006.56 1006.32 1006.11 1005.91 1005.72 1005.53 1005.33 1005.12 1004.89 1004.65 1004.42 1004.19 1004.00 1003.85 1003.75 1003.71 1003.75 1003.84 1004.00 1004.20 1004.44 1004.70 1004.96 1005.22 1005.46 1005.68 1005.89 1006.07 1006.24 1006.40 1006.56 1006.72 1006.87 1007.03 1007.20 1007.36
1008.88 1008.67 1008.41 1008.11 1007.79 1007.47 1007.17 1006.88 1006.62 1006.38 1006.17 1005.97 1005.78 1005.58 1005.37 1005.15 1004.91 1004.66 1004.41 1004.18 1003.97 1003.81 1003.71 1003.67 1003.69 1003.79 1003.94 1004.14 1004.37 1004.62 1004.88 1005.12 1005.35 1005.56 1005.75 1005.91 1006.06 1006.19 1006.31 1006.43 1006.55 1006.67 1006.79 1006.92
1008.89 1008.66 1008.38 1008.07 1007.75 1007.43 1007.13 1006.84 1006.59 1006.37 1006.17 1005.98 1005.80 1005.62 1005.42 1005.21 1004.98 1004.74 1004.51 1004.28 1004.09 1003.94 1003.84 1003.80 1003.83 1003.93 1004.08 1004.27 1004.50 1004.74 1004.99 1005.22 1005.45 1005.65 1005.82 1005.97 1006.11 1006.22 1006.33 1006.43 1006.53 1006.63 1006.73 1006.84
1008.80 1008.56 1008.28 1007.97 1007.64 1007.33 1007.04 1006.77 1006.54 1006.34 1006.16 1006.01 1005.86 1005.71 1005.55 1005.37 1005.18 1004.97 1004.77 1004.57 1004.41 1004.28 1004.19 1004.17 1004.20 1004.30 1004.44 1004.62 1004.84 1005.07 1005.30 1005.52 1005.73 1005.92 1006.08 1006.23 1006.36 1006.48 1006.59 1006.69 1006.79 1006.89 1007.00 1007.11
1008.62 1008.38 1008.10 1007.80 1007.50 1007.20 1006.94 1006.71 1006.52 1006.36 1006.24 1006.13 1006.04 1005.94 1005.83 1005.70 1005.56 1005.41 1005.25 1005.09 1004.96 1004.86 1004.79 1004.78 1004.81 1004.90 1005.03 1005.19 1005.38 1005.58 1005.78 1005.98 1006.17 1006.34 1006.50 1006.64 1006.77 1006.90 1007.02 1007.15 1007.27 1007.40 1007.53 1007.66
1008.35 1008.12 1007.87 1007.60 1007.34 1007.10 1006.89 1006.72 1006.59 1006.51 1006.45 1006.42 1006.39 1006.36 1006.32 1006.26 1006.17 1006.07 1005.96 1005.85 1005.75 1005.67 1005.62 1005.61 1005.63 1005.70 1005.80 1005.93 1006.08 1006.24 1006.40 1006.56 1006.72 1006.87 1007.01 1007.14 1007.28 1007.42 1007.57 1007.72 1007.88 1008.05 1008.22 1008.39
1008.04 1007.85 1007.64 1007.43 1007.23 1007.06 1006.94 1006.85 1006.81 1006.81 1006.84 1006.89 1006.94 1006.99 1007.02 1007.02 1007.00 1006.95 1006.88 1006.80 1006.72 1006.65 1006.60 1006.58 1006.59 1006.62 1006.68 1006.77 1006.87 1006.98 1007.09 1007.20 1007.32 1007.43 1007.55 1007.68 1007.81 1007.97 1008.13 1008.32 1008.52 1008.73 1008.95 1009.17
1007.75 1007.61 1007.46 1007.33 1007.22 1007.14 1007.10 1007.12 1007.17 1007.27 1007.39 1007.53 1007.66 1007.78 1007.87 1007.93 1007.95 1007.94 1007.90 1007.84 1007.77 1007.70 1007.64 1007.59 1007.57 1007.57 1007.58 1007.62 1007.66 1007.72 1007.78 1007.84 1007.91 1007.99 1008.07 1008.18 1008.31 1008.47 1008.65 1008.87 1009.10 1009.35 1009.61 1009.87
1007.56 1007.48 1007.40 1007.35 1007.32 1007.34 1007.40 1007.51 1007.67 1007.85 1008.06 1008.27 1008.47 1008.64 1008.78 1008.87 1008.92 1008.93 1008.90 1008.84 1008.76 1008.67 1008.59 1008.52 1008.46 1008.42 1008.39 1008.38 1008.38 1008.38 1008.39 1008.41 1008.44 1008.48 1008.55 1008.63 1008.75 1008.90 1009.09 1009.31 1009.56 1009.83 1010.11 1010.39
Thickness
5773 5779 5778 5774 5773 5773 5772 5775 5772 5779 5781 5787 5787 5786 5785 5784 5782 5781 5779 5780 5780 5779 5779 5778 5777 5776 5776 5776 5774 5773 5769 5766 5764 5762 5761 5759 5757 5755 5753 5751 5750 5748 5745 5744
5756 5766 5767 5763 5768 5769 5769 5771 5771 5772 5774 5786 5785 5783 5779 5777 5776 5773 5772 5772 5773 5773 5772 5771 5770 5770 5769 5769 5768 5766 5763 5761 5759 5757 5754 5753 5751 5749 5747 5745 5743 5742 5740 5738
5745 5755 5751 5746 5762 5764 5764 5769 5768 5763 5771 5775 5772 5769 5769 5770 5769 5767 5767 5766 5766 5765 5765 5765 5765 5764 5762 5761 5760 5758 5756 5755 5753 5751 5749 5747 5746 5743 5740 5738 5736 5734 5733 5732
5739 5734 5720 5755 5769 5766 5760 5763 5767 5765 5766 5766 5763 5762 5764 5765 5763 5761 5761 5760 5759 5759 5759 5759 5759 5758 5756 5755 5752 5750 5748 5747 5747 5745 5743 5741 5738 5736 5733 5731 5729 5727 5725 5724
5729 5725 5733 5745 5752 5751 5746 5749 5761 5758 5757 5757 5756 5752 5753 5757 5756 5754 5754 5753 5753 5753 5753 5751 5750 5750 5748 5746 5745 5743 5741 5740 5739 5737 5735 5733 5730 5728 5725 5722 5720 5719 5718 5717
5719 5713 5716 5738 5745 5749 5741 5734 5752 5750 5746 5746 5744 5738 5742 5746 5746 5746 5745 5745 5744 5745 5744 5741 5741 5740 5738 5737 5735 5733 5733 5732 5731 5729 5727 5725 5722 5720 5718 5715 5713 5712 5711 5710
5710 5709 5724 5732 5735 5734 5717 5726 5739 5740 5738 5737 5736 5737 5737 5737 5735 5735 5735 5735 5735 5734 5732 5731 5731 5730 5728 5727 5726 5726 5725 5724 5722 5720 5718 5717 5714 5712 5709 5708 5705 5703 5702 5701
5703 5699 5708 5719 5721 5716 5717 5724 5727 5728 5729 5727 5726 5725 5725 5724 5723 5724 5723 5724 5724 5722 5721 5721 5721 5720 5717 5716 5717 5716 5715 5713 5712 5710 5710 5709 5705 5702 5701 5698 5696 5694 5693 5692
5701 5702 5704 5710 5710 5712 5714 5713 5716 5718 5719 5718 5715 5714 5714 5714 5714 5714 5714 5714 5714 5712 5711 5710 5710 5709 5706 5706 5706 5705 5703 5702 5702 5701 5699 5698 5696 5694 5692 5690 5689 5688 5687 5685
5687 5694 5697 5700 5703 5704 5705 5705 5708 5709 5708 5708 5706 5706 5705 5705 5704 5704 5704 5704 5703 5702 5700 5698 5699 5699 5698 5696 5696 5694 5691 5691 5691 5690 5689 5688 5687 5687 5685 5683 5681 5680 5679 5678
5676 5682 5685 5689 5690 5692 5694 5696 5697 5698 5699 5698 5698 5697 5697 5695 5694 5694 5694 5694 5693 5692 5690 5689 5689 5689 5689 5688 5686 5683 5680 5680 5680 5681 5680 5678 5677 5675 5674 5673 5671 5668 5669 5668
5669 5675 5675 5677 5682 5683 5683 5684 5686 5687 5688 5689 5688 5687 5687 5686 5685 5685 5685 5685 5684 5683 5681 5680 5679 5679 5678 5678 5676 5673 5672 5671 5673 5672 5671 5670 5669 5667 5662 5661 5658 5656 5654 5654
5664 5669 5669 5671 5674 5674 5674 5676 5678 5678 5677 5677 5678 5678 5677 5676 5676 5676 5676 5676 5675 5674 5673 5672 5671 5670 5670 5669 5666 5664 5663 5663 5664 5664 5662 5661 5660 5659 5657 5652 5648 5646 5645 5643
5655 5656 5657 5660 5662 5665 5667 5669 5670 5670 5670 5669 5669 5669 5668 5667 5667 5666 5666 5667 5667 5666 5665 5664 5662 5661 5661 5660 5658 5656 5656 5655 5654 5654 5654 5653 5652 5651 5649 5647 5645 5643 5638 5633
5647 5648 5650 5653 5655 5656 5658 5660 5659 5659 5659 5659 5659 5658 5658 5657 5656 5656 5658 5659 5659 5658 5657 5655 5653 5652 5652 5651 5650 5648 5647 5647 5646 5646 5645 5645 5643 5642 5641 5639 5637 5634 5632 5627
5640 5642 5644 5645 5646 5647 5649 5650 5650 5650 5650 5649 5649 5649 5649 5649 5648 5648 5649 5649 5648 5648 5647 5647 5645 5645 5644 5643 5642 5641 5639 5636 5636 5638 5638 5637 5635 5633 5632 5631 5629 5627 5624 5621
5630 5632 5634 5636 5638 5640 5642 5643 5643 5643 5642 5641 5640 5641 5640 5640 5640 5640 5641 5642 5641 5640 5639 5638 5637 5637 5637 5635 5634 5634 5633 5631 5627 5630 5630 5629 5628 5626 5625 5623 5622 5620 5618 5614
5626 5628 5630 5631 5632 5633 5635 5636 5636 5635 5634 5633 5633 5632 5631 5631 5631 5631 5632 5632 5632 5631 5631 5630 5630 5629 5628 5627 5626 5626 5625 5624 5622 5622 5621 5620 5619 5618 5617 5615 5614 5611 5609 5606
5620 5621 5622 5624 5625 5627 5628 5628 5628 5627 5626 5626 5624 5623 5623 5623 5623 5623 5623 5623 5622 5621 5622 5622 5618 5620 5620 5618 5616 5617 5617 5616 5615 5614 5612 5609 5609 5610 5608 5606 5604 5602 5600 5598
5613 5615 5616 5617 5619 5619 5620 5621 5620 5619 5618 5618 5617 5616 5615 5615 5615 5615 5615 5614 5615 5616 5614 5612 5611 5611 5610 5610 5607 5609 5608 5607 5605 5604 5602 5601 5600 5599 5599 5597 5595 5593 5591 5589
5607 5608 5609 5610 5611 5613 5613 5613 5612 5610 5610 5610 5609 5609 5608 5608 5608 5608 5607 5608 5608 5606 5605 5602 5603 5603 5602 5600 5597 5600 5599 5597 5595 5594 5593 5592 5591 5589 5588 5587 5585 5583 5581 5579
5599 5601 5602 5603 5604 5604 5604 5605 5605 5603 5603 5602 5602 5602 5602 5601 5602 5601 5601 5600 5600 5597 5598 5599 5599 5594 5593 5589 5593 5593 5591 5589 5588 5587 5585 5583 5581 5580 5578 5576 5575 5574 5572 5571
5593 5594 5595 5596 5596 5596 5597 5597 5597 5596 5595 5595 5595 5595 5595 5595 5595 5594 5594 5594 5593 5589 5590 5591 5587 5583 5581 5584 5586 5586 5584 5582 5581 5580 5578 5576 5574 5572 5570 5568 5567 5565 5564 5562
5587 5588 5589 5590 5590 5590 5589 5591 5591 5590 5590 5589 5589 5589 5589 5589 5589 5589 5589 5585 5583 5582 5583 5581 5577 5575 5573 5579 5579 5579 5577 5575 5573 5572 5571 5569 5567 5565 5563 5561 5559 5557 5555 5553
5582 5582 5583 5583 5583 5585 5585 5585 5585 5585 5585 5586 5586 5584 5584 5584 5583 5583 5582 5581 5577 5576 5577 5575 5570 5569 5571 5573 5573 5571 5569 5567 5565 5563 5563 5562 5561 5560 5557 5555 5553 5550 5548 5546
5578 5579 5579 5578 5579 5579 5582 5582 5581 5581 5581 5580 5580 5580 5580 5580 5579 5578 5576 5575 5574 5571 5571 5571 5569 5566 5567 5567 5565 5563 5562 5560 5558 5556 5555 5555 5554 5552 5550 5548 5545 5543 5541 5538
5575 5576 5576 5577 5577 5577 5578 5577 5577 5576 5576 5575 5574 5575 5575 5575 5574 5573 5571 5571 5570 5569 5568 5567 5566 5564 5563 5561 5559 5557 5554 5552 5551 5550 5548 5547 5545 5543 5542 5539 5537 5536 5533 5531